Tracking 32139 objects as of 19-Nov-2025
HD Live streaming from Space Station
objects crossing your sky now

HGS 4 (GALAXY 4)

Track HGS 4 (GALAXY 4) now!
HGS 4 (GALAXY 4) is classified as:


NORAD ID: 22694
Int'l Code: 1993-039A
Perigee: 35,758.7 km
Apogee: 35,829.4 km
Inclination: 14.6 °
Period: 1,436.1 minutes
Semi major axis: 42165 km
RCS: 28.88 m2 (large)
Launch date: June 25, 1993
Source: United States (US)
Launch site: FRENCH GUIANA (FRGUI)
Your satellite tracking list
Your tracking list is empty




NASA's NSSDC Master Catalog

Two Line Element Set (TLE):
1 22694U 93039A   25322.83013756 -.00000135  00000-0  00000-0 0  9994
2 22694  14.5812 356.7377 0008382  34.5093  44.2344  1.00270670116898
Source of the keplerian elements: AFSPC